When you browse on this site, cookies collect data to enhance your experience and personalize the content and advertising you see.
Visit our Privacy Policy to learn more. By continuing to use the site, you agree to this use of cookies and data.
  • Em Portugal
  • Lista de países
  • Para 7 dias
  • Temperatura da água
  • Mapas de satélite
  • Mapa do tempo
  • Widgets de tempo
  • user-avatar
    Iniciar Sessão

    Previsão horária em Ruse

    Hoje, 19 Fevereiro, Terça-feira

    Tempo Temperatura Precipitação Vento Pressão Humidade
    00:00 +9°C° 0 mm 1 m/s 762 mmHg 67%
    01:00 +8°C° 0 mm 1 m/s 762 mmHg 68%
    02:00 +7°C° 0 mm 0 m/s 762 mmHg 68%
    03:00 +7°C° 0 mm 0 m/s 761 mmHg 69%
    04:00 +6°C° 0 mm 0 m/s 761 mmHg 70%
    05:00 +6°C° 0 mm 0 m/s 761 mmHg 71%
    06:00 +6°C° 0 mm 0 m/s 761 mmHg 72%
    07:00 +6°C° 0 mm 0 m/s 761 mmHg 72%
    08:00 +7°C° 0 mm 1 m/s 761 mmHg 72%
    09:00 +9°C° 0 mm 1 m/s 761 mmHg 65%
    10:00 +11°C° 0 mm 1 m/s 761 mmHg 59%
    11:00 +12°C° 0 mm 1 m/s 761 mmHg 52%
    12:00 +13°C° 0 mm 1 m/s 761 mmHg 49%
    13:00 +15°C° 0 mm 1 m/s 760 mmHg 45%
    14:00 +16°C° 0 mm 1 m/s 760 mmHg 41%
    15:00 +16°C° 0 mm 1 m/s 759 mmHg 43%
    16:00 +15°C° 0 mm 1 m/s 759 mmHg 45%
    17:00 +15°C° 0 mm 1 m/s 759 mmHg 47%
    18:00 +14°C° 0 mm 1 m/s 759 mmHg 50%
    19:00 +13°C° 0 mm 1 m/s 759 mmHg 54%
    20:00 +11°C° 0 mm 1 m/s 759 mmHg 58%
    21:00 +11°C° 0 mm 1 m/s 759 mmHg 60%
    22:00 +9°C° 0 mm 0 m/s 759 mmHg 62%
    23:00 +9°C° 0 mm 0 m/s 759 mmHg 64%

    Amanhã, 20 Fevereiro, Quarta-feira

    Tempo Temperatura Precipitação Vento Pressão Humidade
    00:00 +9°C° 0 mm 0 m/s 759 mmHg 66%
    01:00 +8°C° 0 mm 0 m/s 759 mmHg 67%
    02:00 +9°C° 0 mm 1 m/s 759 mmHg 69%
    03:00 +8°C° 0 mm 1 m/s 759 mmHg 71%
    04:00 +8°C° 0 mm 1 m/s 758 mmHg 72%
    05:00 +8°C° 0 mm 1 m/s 758 mmHg 74%
    06:00 +8°C° 0 mm 1 m/s 758 mmHg 75%
    07:00 +6°C° 0 mm 2 m/s 758 mmHg 76%
    08:00 +6°C° 0 mm 2 m/s 758 mmHg 78%
    09:00 +8°C° 0 mm 3 m/s 758 mmHg 68%
    10:00 +10°C° 0 mm 4 m/s 758 mmHg 59%
    11:00 +12°C° 0 mm 5 m/s 758 mmHg 50%
    12:00 +13°C° 0 mm 6 m/s 757 mmHg 47%
    13:00 +14°C° 0 mm 6 m/s 757 mmHg 45%
    14:00 +15°C° 0 mm 7 m/s 757 mmHg 43%
    15:00 +14°C° 0 mm 6 m/s 757 mmHg 45%
    16:00 +14°C° 0 mm 5 m/s 757 mmHg 46%
    17:00 +14°C° 0 mm 5 m/s 757 mmHg 48%
    18:00 +13°C° 0 mm 5 m/s 758 mmHg 53%
    19:00 +12°C° 0 mm 5 m/s 758 mmHg 59%
    20:00 +10°C° 0 mm 5 m/s 759 mmHg 64%
    21:00 +9°C° 0 mm 5 m/s 759 mmHg 64%
    22:00 +9°C° 0 mm 6 m/s 760 mmHg 65%
    23:00 +8°C° 0 mm 6 m/s 760 mmHg 65%

    Depois de amanhã, 21 Fevereiro, Quinta-feira

    Tempo Temperatura Precipitação Vento Pressão Humidade
    00:00 +7°C° 0 mm 5 m/s 760 mmHg 68%
    01:00 +7°C° 0 mm 4 m/s 761 mmHg 70%
    02:00 +7°C° 0 mm 3 m/s 761 mmHg 72%
    03:00 +5°C° 0 mm 3 m/s 761 mmHg 74%
    04:00 +5°C° 0 mm 3 m/s 761 mmHg 75%
    05:00 +5°C° 0 mm 2 m/s 761 mmHg 77%
    06:00 +5°C° 0 mm 2 m/s 762 mmHg 77%
    07:00 +5°C° 0 mm 2 m/s 762 mmHg 77%
    08:00 +5°C° 0 mm 2 m/s 762 mmHg 77%
    09:00 +5°C° 0 mm 3 m/s 762 mmHg 70%
    10:00 +8°C° 0 mm 3 m/s 763 mmHg 63%
    11:00 +10°C° 0 mm 4 m/s 763 mmHg 56%
    12:00 +10°C° 0 mm 4 m/s 762 mmHg 52%
    13:00 +11°C° 0 mm 4 m/s 762 mmHg 48%
    14:00 +12°C° 0 mm 5 m/s 762 mmHg 44%
    15:00 +12°C° 0 mm 4 m/s 762 mmHg 45%
    16:00 +12°C° 0 mm 4 m/s 761 mmHg 46%
    17:00 +12°C° 0 mm 4 m/s 761 mmHg 47%
    18:00 +11°C° 0 mm 3 m/s 761 mmHg 51%
    19:00 +9°C° 0 mm 3 m/s 761 mmHg 56%
    20:00 +8°C° 0 mm 3 m/s 762 mmHg 61%
    21:00 +8°C° 0 mm 3 m/s 761 mmHg 63%
    22:00 +8°C° 0 mm 3 m/s 761 mmHg 65%
    23:00 +7°C° 0 mm 3 m/s 761 mmHg 67%

    22 Fevereiro, Sexta-feira

    Tempo Temperatura Precipitação Vento Pressão Humidade
    00:00 +7°C° 0 mm 3 m/s 761 mmHg 67%
    01:00 +7°C° 0 mm 3 m/s 761 mmHg 68%
    02:00 +5°C° 0 mm 3 m/s 760 mmHg 68%
    03:00 +5°C° 0 mm 4 m/s 760 mmHg 69%
    04:00 +5°C° 0 mm 4 m/s 759 mmHg 69%
    05:00 +6°C° 0 mm 4 m/s 758 mmHg 70%
    06:00 +6°C° 0.3 mm 4 m/s 758 mmHg 74%
    07:00 +6°C° 0.3 mm 4 m/s 758 mmHg 78%
    08:00 +6°C° 0.3 mm 4 m/s 757 mmHg 82%
    09:00 +7°C° 0.1 mm 5 m/s 757 mmHg 78%
    10:00 +8°C° 0.1 mm 6 m/s 756 mmHg 74%
    11:00 +9°C° 0.1 mm 7 m/s 756 mmHg 70%
    12:00 +9°C° 0.1 mm 7 m/s 755 mmHg 69%
    13:00 +10°C° 0.1 mm 6 m/s 755 mmHg 67%
    14:00 +10°C° 0.1 mm 6 m/s 754 mmHg 66%
    15:00 +10°C° 0.5 mm 5 m/s 754 mmHg 68%
    16:00 +11°C° 0.5 mm 4 m/s 754 mmHg 69%
    17:00 +10°C° 0.5 mm 3 m/s 754 mmHg 70%
    18:00 +7°C° 0.9 mm 6 m/s 755 mmHg 69%
    19:00 +5°C° 0.9 mm 9 m/s 756 mmHg 68%
    20:00 +2°C° 0.9 mm 12 m/s 756 mmHg 67%
    21:00 -1°C° 0.3 mm 11 m/s 757 mmHg 69%
    22:00 -2°C° 0.3 mm 10 m/s 759 mmHg 71%
    23:00 -3°C° 0.3 mm 10 m/s 760 mmHg 73%

    23 Fevereiro, Sábado

    Tempo Temperatura Precipitação Vento Pressão Humidade
    00:00 -5°C° 0.8 mm 9 m/s 761 mmHg 76%
    01:00 -6°C° 0.8 mm 9 m/s 762 mmHg 80%
    02:00 -8°C° 0.8 mm 9 m/s 763 mmHg 83%
    03:00 -7°C° 0.2 mm 8 m/s 764 mmHg 77%
    04:00 -6°C° 0.2 mm 6 m/s 764 mmHg 71%
    05:00 -6°C° 0.2 mm 5 m/s 765 mmHg 65%
    06:00 -5°C° 0 mm 4 m/s 766 mmHg 64%
    07:00 -5°C° 0 mm 4 m/s 766 mmHg 64%
    08:00 -6°C° 0 mm 3 m/s 767 mmHg 64%
    09:00 -5°C° 0 mm 4 m/s 767 mmHg 59%
    10:00 -4°C° 0 mm 4 m/s 767 mmHg 54%
    11:00 -4°C° 0 mm 5 m/s 767 mmHg 50%
    12:00 -2°C° 0 mm 5 m/s 767 mmHg 47%
    13:00 -2°C° 0 mm 5 m/s 766 mmHg 44%
    14:00 -1°C° 0 mm 5 m/s 766 mmHg 40%
    15:00 -1°C° 0 mm 5 m/s 766 mmHg 42%
    16:00 -2°C° 0 mm 4 m/s 766 mmHg 43%
    17:00 -2°C° 0 mm 4 m/s 766 mmHg 45%
    18:00 -2°C° 0 mm 4 m/s 766 mmHg 49%
    19:00 -3°C° 0 mm 4 m/s 767 mmHg 52%
    20:00 -3°C° 0 mm 4 m/s 767 mmHg 56%
    21:00 -4°C° 0 mm 4 m/s 767 mmHg 57%
    22:00 -4°C° 0 mm 4 m/s 767 mmHg 57%
    23:00 -5°C° 0 mm 4 m/s 767 mmHg 57%

    24 Fevereiro, Domingo

    Tempo Temperatura Precipitação Vento Pressão Humidade
    00:00 -5°C° 0 mm 4 m/s 767 mmHg 58%
    01:00 -5°C° 0 mm 4 m/s 767 mmHg 58%
    02:00 -5°C° 0 mm 4 m/s 767 mmHg 59%
    03:00 -7°C° 0 mm 4 m/s 767 mmHg 60%
    04:00 -6°C° 0 mm 3 m/s 767 mmHg 61%
    05:00 -6°C° 0 mm 3 m/s 767 mmHg 62%
    06:00 -7°C° 0 mm 4 m/s 767 mmHg 60%
    07:00 -7°C° 0 mm 5 m/s 767 mmHg 59%
    08:00 -7°C° 0 mm 5 m/s 767 mmHg 57%
    09:00 -6°C° 0 mm 6 m/s 767 mmHg 55%
    10:00 -5°C° 0 mm 6 m/s 767 mmHg 53%
    11:00 -5°C° 0 mm 6 m/s 767 mmHg 51%
    12:00 -4°C° 0 mm 6 m/s 767 mmHg 51%
    13:00 -4°C° 0 mm 6 m/s 767 mmHg 50%
    14:00 -3°C° 0 mm 6 m/s 766 mmHg 50%
    15:00 -3°C° 0 mm 6 m/s 766 mmHg 51%
    16:00 -2°C° 0 mm 5 m/s 766 mmHg 51%
    17:00 -4°C° 0 mm 5 m/s 766 mmHg 52%
    18:00 -4°C° 0 mm 5 m/s 766 mmHg 55%
    19:00 -4°C° 0 mm 4 m/s 767 mmHg 58%
    20:00 -4°C° 0 mm 3 m/s 767 mmHg 61%
    21:00 -4°C° 0 mm 4 m/s 767 mmHg 62%
    22:00 -6°C° 0 mm 5 m/s 767 mmHg 62%
    23:00 -6°C° 0 mm 6 m/s 767 mmHg 63%
    Mostrar mais